Location: Pensacola
(30.4142°N, 87.2155°W)
Time: 14:15:07
(UTC-06:00)

N. Korean satellite - Visible Passes

Search period start: 02 February 2023 00:00
Search period end: 12 February 2023 00:00
Orbit: 407 x 443 km, 97.3° (Epoch: 01 February)

Date Brightness Start Highest point End Pass type
(mag) Time Alt. Az. Time Alt. Az. Time Alt. Az.
02 Feb 7.2 04:51:43 10° NNE 04:54:53 50° E 04:58:04 10° S visible
03 Feb 9.8 04:11:16 10° ENE 04:12:11 11° E 04:13:05 10° ESE visible
03 Feb 7.4 05:41:46 10° NNW 05:44:23 23° WNW 05:47:01 10° SW visible
04 Feb 6.6 04:58:37 10° NNE 05:01:51 67° E 05:05:07 10° S visible
05 Feb 9.6 04:17:18 10° ENE 04:19:04 14° E 04:20:50 10° SE visible
05 Feb 7.7 05:48:51 10° NNW 05:51:11 18° WNW 05:53:32 10° WSW visible
06 Feb 6.2 05:05:18 10° NNE 05:08:34 88° E 05:11:51 10° S visible
07 Feb 9.3 04:23:26 10° NE 04:25:41 17° E 04:27:56 10° SE visible
07 Feb 8.0 05:55:46 10° NW 05:57:44 15° WNW 05:59:41 10° WSW visible
08 Feb 6.1 05:11:45 10° N 05:15:01 72° WNW 05:18:17 10° SSW visible
09 Feb 8.9 04:29:27 10° NE 04:32:01 21° E 04:34:36 10° SSE visible
09 Feb 8.2 06:02:33 10° NW 06:03:59 12° WNW 06:05:26 10° W visible
10 Feb 6.3 05:17:58 10° N 05:21:11 56° WNW 05:24:25 10° SSW visible
11 Feb 8.6 04:35:18 10° NE 04:38:06 26° E 04:40:55 10° SSE visible
